Regional Weather Roundup
Issued by NWS Wakefield, VA

Home | Current Version | Previous Version | Text Only | Print | Product List | Glossary Off
Versions: 1 2 3 4 5 6 7 8 9 10 11 12 13 14 15 16 17 18 19 20 21 22 23 24 25 26 27 28 29 30 31 32 33 34 35 36 37 38 39 40 41 42 43 44 45 46 47 48 49 50

000
ASUS41 KAKQ 290910
RWRAKQ

REGIONAL WEATHER ROUNDUP
NATIONAL WEATHER SERVICE WAKEFIELD VA
500 AM EDT TUE JUL 29 2014

Note: "fair" indicates few or no clouds below 12,000 feet with no
significant weather and/or obstructions to visibility. * = Denotes
station may not report precipitation (e.g., rain,snow,etc.),
thunder or fog.

VAZ042-051-052>054-056-291000-
NORTHERN VIRGINIA

CITY           SKY/WX    TMP DP  RH WIND       PRES   REMARKS
WASH NATIONAL  CLEAR     67  54  63 NW13      29.88R
DULLES         PTCLDY    60  52  74 NW5       29.90R
FORT BELVOIR   CLEAR     64  54  69 NW8       29.89R
QUANTICO       CLEAR     64  53  67 VRB5      29.90R
FREDERICKSBRG* CLEAR     64  55  72 NW6       29.89R
STAFFORD*      CLEAR     58  58 100 NW5       29.93R
WARRENTON      CLEAR     59  58  94 W6        29.89R
CULPEPER*      CLEAR    N/A N/A N/A CALM      29.91R
MANASSAS*      NOT AVBL
LEESBURG*      CLEAR     61  55  82 NW7       29.90R
WINCHESTER     CLEAR     55  50  82 NW6       29.91S
$$

VAZ048-049-060>072-079>083-291000-
CENTRAL AND SOUTH CENTRAL VIRGINIA...AND NORTH CENTRAL NORTH CAROLINA

CITY           SKY/WX    TMP DP  RH WIND       PRES   REMARKS
RICHMOND       PTCLDY    65  57  75 N3        29.89R
CHESTERFIELD*  PTSUNNY   63  48  59 N5        29.90R
HANOVER        CLEAR     62  56  80 NW3       29.90R
TAPPAHANNOCK*  CLEAR     63  56  77 CALM      29.89R
CHARLOTTSVILLE CLEAR     61  50  67 NW6       29.91R
ORANGE*        CLEAR     54  52  94 W5        29.92R
LOUISA*        CLEAR     57  54  88 CALM      29.89R
FARMVILLE*     PTCLDY    63  52  67 NW3       29.89R
SOUTH HILL*    PTCLDY    61  61 100 CALM      29.95R
ROANOKE RAPIDS NOT AVBL
RALEIGH        MOCLDY    64  57  78 CALM      29.91R
$$

VAZ088>098-291000-
SOUTHEAST VIRGINIA

CITY           SKY/WX    TMP DP  RH WIND       PRES   REMARKS
NORFOLK        CLEAR     71  61  70 N5        29.86R
VIRGINIA BEACH PTCLDY    71  62  73 N7        29.85R
NORFOLK NAVAL  PTCLDY    70  60  70 NW9       29.88R
WEST POINT*    CLEAR     67  58  72 CALM      29.88R
NEWPORT NEWS   CLEAR     70  59  68 N7        29.87R
LANGLEY AFB    CLEAR     68  60  76 NW9       29.86R
FORT EUSTIS    CLEAR     69  58  69 N8        29.86R
WILLIAMSBURG*  CLEAR     66  61  82 N6        29.88R
FRANKLIN*      CLEAR     61  61 100 CALM      29.89R
WAKEFIELD      CLEAR     63  58  83 CALM      29.88R
$$

VAZ020-022-025-037-045-291000-
WESTERN AND SOUTHWEST VIRGINIA

CITY           SKY/WX    TMP DP  RH WIND       PRES   REMARKS
STAUNTON*      CLEAR     53  50  89 CALM      29.95R
HOT SPRINGS VA CLOUDY    50  48  95 W3        30.00R
LYNCHBURG      CLEAR     60  55  83 N3        29.93R
DANVILLE       MOCLDY    64  56  75 N5        29.91R
MARTINSVILLE   CLEAR     56  55  96 CALM      29.95R
ROANOKE        CLEAR     60  53  77 CALM      29.95R
BLACKSBURG     PTCLDY    57  57 100 CALM      29.98S
DUBLIN*        RAIN      63  58  86 W5        29.98R
MARION*        MOCLDY   N/A N/A N/A SW6       30.01F
HILLSVILLE*    MOCLDY    59  54  84 NW14      29.98R
RICHLANDS*     CLOUDY    61  58  90 W6        30.01R
WISE*          CLOUDY    59  59 100 NW3       30.03S
ABINGDON*      CLOUDY    60  58  93 CALM      29.99F
$$

MDZ021>025-VAZ099-100-291000-
SOUTHERN MARYLAND AND THE DELMARVA PENINSULA

CITY           SKY/WX    TMP DP  RH WIND       PRES   REMARKS
PATUXENT RIVER CLEAR     68  58  70 NW17      29.85R
BAY BRIDGE APT   N/A     68  55  64 N8        29.86R
LEONARDTOWN    CLEAR     61  55  82 W5        29.88R
DOVER          CLEAR     64  59  84 NW9       29.82R
GEORGETOWN     CLEAR     65  60  84 VRB3      29.85R
EASTON         CLEAR     67  60  80 N5        29.88R
CAMBRIDGE      MOCLDY    72  61  68 N8        29.84R
SALISBURY      NOT AVBL
OCEAN CITY     CLEAR     64  60  87 N6        29.83R
WALLOPS ISLAND CLEAR     66  61  84 CALM      29.85R
ACCOMACK*        N/A     68  61  77 CALM      29.84R
$$

NCZ012>017-030>032-291000-
EASTERN NORTH CAROLINA

CITY           SKY/WX    TMP DP  RH WIND       PRES   REMARKS
ELIZABETH CITY CLEAR     70  60  70 N8        29.86R
AHOSKIE*       CLEAR     61  59  94 CALM      29.89R
EDENTON*       CLEAR     66  60  80 N6        29.87R
CURRITUCK*     CLEAR     67  58  73 CALM      29.87R
KILL DEVIL HLS CLEAR     72  63  72 NW3       29.84R
MANTEO         NOT AVBL
CAPE HATTERAS  MOCLDY    78  63  59 NE3       29.85R
GOLDSBORO      MOCLDY    70  62  77 N2        29.88R
WASHINGTON     CLOUDY    68  60  76 CALM      29.88R
GREENVILLE     CLOUDY    68  61  77 N3        29.90R
NEW BERN       PTCLDY    70  62  76 CALM      29.88R
WILMINGTON     PTCLDY    71  63  75 NE8       29.85S
$$

VAZ048-291000-
ELSEWHERE

CITY           SKY/WX    TMP DP  RH WIND       PRES   REMARKS
HARRISBURG PA  MOCLDY    61  57  87 CALM      29.86R
BALTIMORE      CLEAR     61  57  87 NW6       29.86R
ANNAPOLIS      CLEAR     66  58  75 W5        29.86R
ANDREWS AFB    CLEAR     65  56  73 NW10      29.87R
WILMINGTON DE  CLEAR     62  58  86 W5        29.85R
PHILADELPHIA   CLEAR     66  55  67 NW10      29.84R
WILDWOOD NJ*   CLEAR     66  55  68 NW6       29.84R
ATLANTIC CITY  CLEAR     62  56  80 W5        29.82R
HENDERSON NC   CLEAR     63  55  76 CALM      29.91R
GREENSBORO     CLEAR     62  55  77 CALM      29.92R
ROCKY MOUNT    MOCLDY    67  58  72 NW5       29.89R
FAYETTEVILLE   CLOUDY    71  59  65 N7        29.88R
CHARLOTTE      MOCLDY    67  55  65 N5        29.92R
$$

VAZ100-291000-
MARINE

STATION/POSITION TIME  TEMP    WIND        PRES    WAVE   SWELL
                       AIR SEA DIR/SP/G            HT/PER HT/PER
                 (UTC) (F)     (DEG/KT/KT) (MB)    (FT/S) (FT/S)
44066 TX TWR #4  0900   70 74  310/ 14/ 16 1007.9R   6/ 6   3/ 7
CAPE MAY NJ      0900   69 78  340/  7/ 13 1009.5S
LEWES DE         0900   69 73  340/ 14/ 16 1009.7S
15NM E FENWICK I 0900   70 73              1009.9R   3/ 4
OCEAN-CITY-INLET 0900   68 69  340/  8/ 10 1009.7R
WACHAPREAGUE VA  0900   69 79   10/  3/  5 1010.4R
THOMAS POINT MD  0900   66 78  320/ 12/ 14 1011.5R
GOOSES REEF MD   0900   70     350/ 14/ 17 1011.1R
COVE POINT MD    0900   68     330/  9/ 14 1010.6R
SOLOMONS ISLAND  0900      80                N/A
BISHOPS HEAD MD  0900   68 76  320/  6/  8 1009.9S
PINEY POINT MD   0900          350/ 16/ 19   N/A
POTOMAC MD       0900   70     340/ 12/ 14 1010.1R
CAMBRIDGE MD     0900   70 79  330/ 11/ 14 1010.1R
LEWISETTA VA     0900   70 78  350/  9/ 14 1010.8R
RAPPAHANNOCK LGT 0900          330/ 15/ 18 1011.1R
STINGRAY PT      0900   70     330/ 12/ 16 1011.4R
YORK RVR RNG VA  0900   70     330/ 12/ 13 1010.4S
YORKTOWN VA      0900   70 79  330/ 12/ 14 1010.7S
JAMESTOWN VA     0900   68     360/  6/ 10   N/A
DOMINION TERM VA 0900   71     360/ 11/ 14 1011.1R
KIPTOPEKE VA     0900      81   40/  4/  5   N/A
CHES BAY BRIDGE  0900   72 78  330/ 15/ 18 1010.1S
CAPE HENRY VA    0900   73     340/ 14/ 16 1009.4R
WILLOUBY STN VA  0900          350/  9/ 11 1010.3R
S CRANEY ISL VA  0900          320/  8/ 11 1011.1R
CAPE HENRY BUOY  0900      76                N/A     3/ 8
1ST LANDING BUOY 0900   74     350/ 14/ 17 1010.3S
CAPE CHARLES BUO 0900      74                N/A     2/ 8
OFFSHORE WE BUOY 0900      78                N/A     3/ 4
64NM E OF VA BCH 0900   76 78  340/ 12/ 16 1009.6R   3/ 4   2/ 8
DUCK PIER NC     0900   72 68  330/ 11/ 12 1009.7R
44056 DUCK FRF   0900                        N/A     2/ 4
OREGON INLET NC  0900   74 79  350/  8/ 11 1010.3R
HATTERAS NC      0900   79 82   20/  5/ 10 1011.1R
DIAMOND SHLS NC  0900          VRB  6/  8  1010.4R   3/ 7   3/ 7
CAPE LOOKOUT NC  0800   76      10/ 10/ 11 1010.3R
$$


USA.gov is the U.S. government's official web portal to all federal, state and local government web resources and services.